Time,TemperatureF,DewpointF,PressureIn,WindDirection,WindDirectionDegrees,WindSpeedMPH,WindSpeedGustMPH,Humidity,HourlyPrecipIn,Conditions,Clouds,dailyrainin,SolarRadiationWatts/m^2,SoftwareType,DateUTC
2013-05-10 00:01:00,55.0,39.0,-100.00,NW,319,3.0,4.0,54,-99.99,,,0.06,0.000000,,2013-05-10 06:01:00,
2013-05-10 00:32:00,56.0,37.0,-100.00,NW,304,2.0,5.0,48,-99.99,,,0.06,0.000000,,2013-05-10 06:32:00,
2013-05-10 00:42:00,56.0,37.0,-100.00,NW,304,2.0,5.0,48,-99.99,,,0.06,0.000000,,2013-05-10 06:42:00,
2013-05-10 00:52:00,56.0,37.0,-100.00,NW,304,2.0,5.0,48,-99.99,,,0.06,0.000000,,2013-05-10 06:52:00,
2013-05-10 01:01:00,56.0,37.0,-100.00,NW,304,2.0,5.0,48,-99.99,,,0.06,0.000000,,2013-05-10 07:01:00,
2013-05-10 01:22:00,56.0,36.0,-100.00,West,277,2.0,9.0,46,-99.99,,,0.06,0.000000,,2013-05-10 07:22:00,
2013-05-10 01:32:00,56.0,36.0,-100.00,West,277,2.0,9.0,46,-99.99,,,0.06,0.000000,,2013-05-10 07:32:00,
2013-05-10 02:32:00,54.0,33.0,-100.00,NW,321,3.0,7.0,44,-99.99,,,0.06,0.000000,,2013-05-10 08:32:00,
2013-05-10 02:42:00,54.0,33.0,-100.00,NW,321,3.0,7.0,44,-99.99,,,0.06,0.000000,,2013-05-10 08:42:00,
2013-05-10 03:33:00,54.0,33.0,-100.00,NW,305,2.0,6.0,44,-99.99,,,0.06,0.000000,,2013-05-10 09:33:00,
2013-05-10 04:33:00,53.0,34.0,-100.00,NW,307,2.0,4.0,48,-99.99,,,-99.99,0.000000,,2013-05-10 10:33:00,
2013-05-10 04:42:00,53.0,34.0,-100.00,NW,307,2.0,4.0,48,-99.99,,,-99.99,0.000000,,2013-05-10 10:42:00,
2013-05-10 04:52:00,53.0,34.0,-100.00,NW,307,2.0,4.0,48,-99.99,,,-99.99,0.000000,,2013-05-10 10:52:00,
2013-05-10 08:32:00,56.0,39.0,-100.00,ESE,121,2.0,2.0,52,-99.99,,,0.06,112.000000,,2013-05-10 14:32:00,
2013-05-10 09:22:00,60.0,41.0,-100.00,SSE,156,3.0,4.0,50,-99.99,,,0.06,412.000000,,2013-05-10 15:22:00,
2013-05-10 09:32:00,60.0,41.0,-100.00,SSE,156,3.0,4.0,50,-99.99,,,0.06,412.000000,,2013-05-10 15:32:00,
2013-05-10 10:23:00,61.0,44.0,-100.00,SSE,160,4.0,5.0,54,-99.99,,,0.06,620.000000,,2013-05-10 16:23:00,
2013-05-10 10:33:00,61.0,44.0,-100.00,SSE,160,4.0,5.0,54,-99.99,,,0.06,620.000000,,2013-05-10 16:33:00,
2013-05-10 10:43:00,61.0,44.0,-100.00,SSE,160,4.0,5.0,54,-99.99,,,0.06,620.000000,,2013-05-10 16:43:00,
2013-05-10 12:02:00,67.0,42.0,-100.00,East,93,5.0,9.0,40,-99.99,,,0.06,938.000000,,2013-05-10 18:02:00,
2013-05-10 12:22:00,67.0,42.0,-100.00,East,93,5.0,9.0,40,-99.99,,,0.06,938.000000,,2013-05-10 18:22:00,
2013-05-10 12:35:00,67.0,42.0,-100.00,East,93,5.0,9.0,40,-99.99,,,0.06,938.000000,,2013-05-10 18:35:00,
2013-05-10 12:43:00,67.0,42.0,-100.00,East,93,5.0,9.0,40,-99.99,,,0.06,938.000000,,2013-05-10 18:43:00,
2013-05-10 12:54:00,67.0,42.0,-100.00,East,93,5.0,9.0,40,-99.99,,,0.06,938.000000,,2013-05-10 18:54:00,
2013-05-10 13:32:00,68.0,38.0,-100.00,ESE,117,5.0,11.0,33,0.00,,,0.05,1024.000000,,2013-05-10 19:32:00,
2013-05-10 13:42:00,68.0,38.0,-100.00,ESE,117,5.0,11.0,33,0.00,,,0.05,1024.000000,,2013-05-10 19:42:00,
2013-05-10 13:52:00,68.0,38.0,-100.00,ESE,117,5.0,11.0,33,0.00,,,0.05,1024.000000,,2013-05-10 19:52:00,
2013-05-10 14:01:00,68.0,38.0,-100.00,ESE,117,5.0,11.0,33,0.00,,,0.05,1024.000000,,2013-05-10 20:01:00,
2013-05-10 14:22:00,70.0,40.0,-100.00,ESE,115,4.0,12.0,34,0.00,,,0.05,1062.000000,,2013-05-10 20:22:00,
2013-05-10 14:32:00,70.0,40.0,-100.00,ESE,115,4.0,12.0,34,0.00,,,0.05,1062.000000,,2013-05-10 20:32:00,
2013-05-10 14:42:00,70.0,40.0,-100.00,ESE,115,4.0,12.0,34,0.00,,,0.05,1062.000000,,2013-05-10 20:42:00,
2013-05-10 14:52:00,70.0,40.0,-100.00,ESE,115,4.0,12.0,34,0.00,,,0.05,1062.000000,,2013-05-10 20:52:00,
2013-05-10 15:01:00,70.0,40.0,-100.00,ESE,115,4.0,12.0,34,0.00,,,0.05,1062.000000,,2013-05-10 21:01:00,
2013-05-10 15:02:00,71.0,39.0,-100.00,SE,124,6.0,9.0,31,0.00,,,0.00,920.000000,,2013-05-10 21:02:00,
2013-05-10 15:25:00,71.0,39.0,-100.00,SE,124,6.0,9.0,31,0.00,,,0.00,920.000000,,2013-05-10 21:25:00,
2013-05-10 15:32:00,71.0,39.0,-100.00,SE,124,6.0,9.0,31,0.00,,,0.00,920.000000,,2013-05-10 21:32:00,
2013-05-10 15:43:00,71.0,39.0,-100.00,SE,124,6.0,9.0,31,0.00,,,0.00,920.000000,,2013-05-10 21:43:00,
2013-05-10 15:52:00,71.0,39.0,-100.00,SE,124,6.0,9.0,31,0.00,,,0.00,920.000000,,2013-05-10 21:52:00,
2013-05-10 16:02:00,68.0,37.0,-100.00,East,84,3.0,7.0,32,0.00,,,-99.99,486.000000,,2013-05-10 22:02:00,
2013-05-10 16:32:00,68.0,37.0,-100.00,East,84,3.0,7.0,32,0.00,,,-99.99,486.000000,,2013-05-10 22:32:00,
2013-05-10 16:42:00,68.0,37.0,-100.00,East,84,3.0,7.0,32,0.00,,,-99.99,486.000000,,2013-05-10 22:42:00,
2013-05-10 16:52:00,68.0,37.0,-100.00,East,84,3.0,7.0,32,0.00,,,-99.99,486.000000,,2013-05-10 22:52:00,
2013-05-10 17:33:00,68.0,37.0,-100.00,ESE,104,2.0,7.0,32,0.00,,,0.00,476.000000,,2013-05-10 23:33:00,
2013-05-10 17:42:00,68.0,37.0,-100.00,ESE,104,2.0,7.0,32,0.00,,,0.00,476.000000,,2013-05-10 23:42:00,
2013-05-10 17:52:00,68.0,37.0,-100.00,ESE,104,2.0,7.0,32,0.00,,,0.00,476.000000,,2013-05-10 23:52:00,
2013-05-10 18:01:00,68.0,37.0,-100.00,ESE,104,2.0,7.0,32,0.00,,,0.00,476.000000,,2013-05-11 00:01:00,
2013-05-10 18:32:00,67.0,36.0,-100.00,NE,43,3.0,6.0,32,0.00,,,0.00,294.000000,,2013-05-11 00:32:00,
2013-05-10 18:42:00,67.0,36.0,-100.00,NE,43,3.0,6.0,32,0.00,,,0.00,294.000000,,2013-05-11 00:42:00,
2013-05-10 18:52:00,67.0,36.0,-100.00,NE,43,3.0,6.0,32,0.00,,,0.00,294.000000,,2013-05-11 00:52:00,
2013-05-10 19:01:00,67.0,36.0,-100.00,NE,43,3.0,6.0,32,0.00,,,0.00,294.000000,,2013-05-11 01:01:00,
2013-05-10 19:02:00,63.0,37.0,-100.00,NW,319,2.0,7.0,38,0.00,,,0.00,165.000000,,2013-05-11 01:02:00,
2013-05-10 19:32:00,63.0,37.0,-100.00,NW,319,2.0,7.0,38,0.00,,,0.00,165.000000,,2013-05-11 01:32:00,
2013-05-10 19:42:00,63.0,37.0,-100.00,NW,319,2.0,7.0,38,0.00,,,0.00,165.000000,,2013-05-11 01:42:00,
2013-05-10 19:52:00,63.0,37.0,-100.00,NW,319,2.0,7.0,38,0.00,,,0.00,165.000000,,2013-05-11 01:52:00,
2013-05-10 20:32:00,62.0,39.0,-100.00,NNW,335,4.0,7.0,42,0.00,,,0.00,69.000000,,2013-05-11 02:32:00,
2013-05-10 20:42:00,62.0,39.0,-100.00,NNW,335,4.0,7.0,42,0.00,,,0.00,69.000000,,2013-05-11 02:42:00,
2013-05-10 20:52:00,62.0,39.0,-100.00,NNW,335,4.0,7.0,42,0.00,,,0.00,69.000000,,2013-05-11 02:52:00,
2013-05-10 21:01:00,62.0,39.0,-100.00,NNW,335,4.0,7.0,42,0.00,,,0.00,69.000000,,2013-05-11 03:01:00,
2013-05-10 21:02:00,58.0,32.0,-100.00,NNW,340,5.0,10.0,37,-99.99,,,0.00,23.000000,,2013-05-11 03:02:00,
2013-05-10 21:21:00,58.0,32.0,-100.00,NNW,340,5.0,10.0,37,-99.99,,,0.00,23.000000,,2013-05-11 03:21:00,
2013-05-10 21:33:00,58.0,32.0,-100.00,NNW,340,5.0,10.0,37,-99.99,,,0.00,23.000000,,2013-05-11 03:33:00,
2013-05-10 21:43:00,58.0,32.0,-100.00,NNW,340,5.0,10.0,37,-99.99,,,0.00,23.000000,,2013-05-11 03:43:00,
2013-05-10 21:53:00,58.0,32.0,-100.00,NNW,340,5.0,10.0,37,-99.99,,,0.00,23.000000,,2013-05-11 03:53:00,
2013-05-10 22:02:00,56.0,33.0,-100.00,NW,319,3.0,8.0,42,0.00,,,0.00,0.000000,,2013-05-11 04:02:00,
2013-05-10 22:33:00,56.0,33.0,-100.00,NW,319,3.0,8.0,42,0.00,,,0.00,0.000000,,2013-05-11 04:33:00,
2013-05-10 22:43:00,56.0,33.0,-100.00,NW,319,3.0,8.0,42,0.00,,,0.00,0.000000,,2013-05-11 04:43:00,
2013-05-10 22:52:00,56.0,33.0,-100.00,NW,319,3.0,8.0,42,0.00,,,0.00,0.000000,,2013-05-11 04:52:00,
2013-05-10 23:02:00,55.0,33.0,-100.00,WNW,292,2.0,4.0,43,0.00,,,0.00,0.000000,,2013-05-11 05:02:00,
2013-05-10 23:32:00,55.0,33.0,-100.00,WNW,292,2.0,4.0,43,0.00,,,0.00,0.000000,,2013-05-11 05:32:00,
2013-05-10 23:42:00,55.0,33.0,-100.00,WNW,292,2.0,4.0,43,0.00,,,0.00,0.000000,,2013-05-11 05:42:00,
2013-05-10 23:52:00,55.0,33.0,-100.00,WNW,292,2.0,4.0,43,0.00,,,0.00,0.000000,,2013-05-11 05:52:00,